K5NCO Weather Reports


time (UTC)temp
F
wind
direction
speed
knots
gust
knots
rain 1hr
in
rain 24hr
in
rain mn
in
humidity
%
barometer
mb
20260503020748 67 90 0.0 0.0 0.00 0.00 0.00 57 1022.0
20260503020245 67 91 0.0 0.0 0.00 0.00 0.00 56 1022.1
20260503015741 68 91 0.0 0.0 0.00 0.00 0.00 55 1022.1
20260503015238 68 91 0.0 0.9 0.00 0.00 0.00 55 1022.0
20260503014734 68 91 0.9 0.9 0.00 0.00 0.00 54 1021.9
20260503014232 68 91 0.9 0.9 0.00 0.00 0.00 53 1021.9
20260503013729 68 80 0.0 0.0 0.00 0.00 0.00 53 1022.0
20260503013227 68 77 0.0 0.0 0.00 0.00 0.00 52 1021.9
20260503012724 68 84 1.7 1.7 0.00 0.00 0.00 52 1021.9
20260503012221 69 74 0.9 0.9 0.00 0.00 0.00 52 1021.9
20260503011718 69 74 0.9 1.7 0.00 0.00 0.00 52 1021.6
20260503011215 69 73 1.7 1.7 0.00 0.00 0.00 51 1021.7
20260503010711 69 64 1.7 1.7 0.00 0.00 0.00 51 1021.8
20260503010208 70 70 0.9 1.7 0.00 0.00 0.00 50 1021.6
20260503005706 70 69 0.9 0.9 0.00 0.00 0.00 49 1021.6
20260503005203 70 78 0.9 1.7 0.00 0.00 0.00 47 1021.8
20260503004658 71 51 1.7 2.6 0.00 0.00 0.00 48 1021.6
20260503004157 71 80 2.6 3.5 0.00 0.00 0.00 46 1021.6
20260503003654 71 72 1.7 2.6 0.00 0.00 0.00 46 1021.6
20260503003151 71 29 2.6 2.6 0.00 0.00 0.00 45 1021.5
20260503002647 72 52 0.9 0.9 0.00 0.00 0.00 47 1021.4
20260503002144 72 45 1.7 1.7 0.00 0.00 0.00 45 1021.6
20260503001640 72 103 1.7 1.7 0.00 0.00 0.00 44 1021.6
20260503001137 72 42 2.6 3.5 0.00 0.00 0.00 44 1021.5
20260503000635 72 70 2.6 3.5 0.00 0.00 0.00 44 1021.3
20260503000132 72 52 3.5 5.2 0.00 0.00 0.00 43 1021.4
20260502235628 73 341 2.6 3.5 0.00 0.00 0.00 43 1021.4
20260502235126 73 79 0.9 0.9 0.00 0.00 0.00 42 1021.5
20260502234622 73 99 3.5 3.5 0.00 0.00 0.00 41 1021.4
20260502234120 73 24 0.0 1.7 0.00 0.00 0.00 42 1021.4
20260502233615 73 359 3.5 5.2 0.00 0.00 0.00 41 1021.5
20260502233112 74 358 3.5 5.2 0.00 0.00 0.00 41 1021.5
20260502232609 73 312 1.7 2.6 0.00 0.00 0.00 41 1021.4
20260502232106 73 28 3.5 5.2 0.00 0.00 0.00 40 1021.3
20260502231602 73 58 0.9 0.9 0.00 0.00 0.00 41 1021.1
20260502231101 73 39 3.5 3.5 0.00 0.00 0.00 40 1021.3
20260502230558 74 320 0.9 0.9 0.00 0.00 0.00 39 1021.3
20260502230056 73 343 2.6 2.6 0.00 0.00 0.00 41 1021.3
20260502225552 74 351 1.7 2.6 0.00 0.00 0.00 40 1021.3
20260502225050 74 332 3.5 3.5 0.00 0.00 0.00 41 1021.2
20260502224545 74 6 5.2 7.0 0.00 0.00 0.00 41 1021.2
20260502224042 73 12 1.7 2.6 0.00 0.00 0.00 40 1021.4
20260502223540 73 335 2.6 3.5 0.00 0.00 0.00 39 1021.3
20260502223038 73 69 1.7 2.6 0.00 0.00 0.00 42 1021.2
20260502222535 74 64 1.7 1.7 0.00 0.00 0.00 42 1021.4
20260502222032 74 348 6.1 8.7 0.00 0.00 0.00 43 1021.2
20260502221527 73 39 2.6 5.2 0.00 0.00 0.00 44 1021.4
20260502221025 73 24 6.1 7.8 0.00 0.00 0.00 43 1021.3
20260502220520 73 63 0.9 0.9 0.00 0.00 0.00 44 1021.5
20260502220017 74 349 3.5 3.5 0.00 0.00 0.00 42 1021.3
20260502215515 73 49 2.6 3.5 0.00 0.00 0.00 43 1021.5
20260502215011 74 337 1.7 2.6 0.00 0.00 0.00 44 1021.7
20260502214508 73 343 4.3 5.2 0.00 0.00 0.00 43 1021.6
20260502214006 73 0 2.6 3.5 0.00 0.00 0.00 43 1021.6
20260502213502 73 341 4.3 6.1 0.00 0.00 0.00 43 1021.7
20260502213000 73 14 4.3 7.8 0.00 0.00 0.00 42 1021.9
20260502212459 73 359 5.2 7.0 0.00 0.00 0.00 42 1021.8
20260502211955 73 4 6.1 7.8 0.00 0.00 0.00 43 1021.9
20260502211451 73 41 3.5 6.1 0.00 0.00 0.00 41 1021.8
20260502210949 73 24 2.6 3.5 0.00 0.00 0.00 42 1022.0
20260502210445 73 335 6.1 7.8 0.00 0.00 0.00 42 1022.2
20260502205943 73 340 6.1 7.0 0.00 0.00 0.00 42 1022.1
20260502205439 73 6 7.8 8.7 0.00 0.00 0.00 41 1022.4
20260502204936 72 357 3.5 6.1 0.00 0.00 0.00 42 1022.5
20260502204433 73 11 5.2 7.8 0.00 0.00 0.00 42 1022.5
20260502203931 73 1 4.3 6.1 0.00 0.00 0.00 43 1022.4
20260502203428 73 24 1.7 3.5 0.00 0.00 0.00 46 1022.5
20260502202924 72 10 3.5 5.2 0.00 0.00 0.00 43 1022.6
20260502202421 73 359 1.7 2.6 0.00 0.00 0.00 45 1022.6
20260502201919 73 65 4.3 6.1 0.00 0.00 0.00 43 1022.8
20260502201415 72 22 3.5 3.5 0.00 0.00 0.00 42 1022.8
20260502200912 72 9 1.7 3.5 0.00 0.00 0.00 44 1022.9
20260502200407 72 319 7.8 9.6 0.00 0.00 0.00 42 1022.8
20260502195906 73 26 7.8 9.6 0.00 0.00 0.00 42 1022.8
20260502195402 72 273 4.3 8.7 0.00 0.00 0.00 42 1022.5
20260502194859 72 346 1.7 1.7 0.00 0.00 0.00 43 1022.6
20260502194355 73 353 1.7 2.6 0.00 0.00 0.00 44 1022.8
20260502193851 72 11 1.7 3.5 0.00 0.00 0.00 44 1022.6
20260502193349 71 325 1.7 2.6 0.00 0.00 0.00 44 1022.6
20260502192844 71 28 4.3 6.1 0.00 0.00 0.00 43 1023.1
20260502192341 72 47 1.7 2.6 0.00 0.00 0.00 45 1022.9
20260502191838 71 36 3.5 5.2 0.00 0.00 0.00 46 1023.0
20260502191337 71 11 3.5 6.1 0.00 0.00 0.00 48 1022.8
20260502190833 71 296 1.7 1.7 0.00 0.00 0.00 48 1023.0
20260502190331 71 339 5.2 8.7 0.00 0.00 0.00 48 1023.0
20260502185826 70 24 3.5 3.5 0.00 0.00 0.00 48 1023.2
20260502185322 71 82 2.6 3.5 0.00 0.00 0.00 49 1023.0
20260502184820 71 27 3.5 3.5 0.00 0.00 0.00 50 1023.0
20260502184315 70 340 5.2 6.1 0.00 0.00 0.00 47 1023.3
20260502183812 69 12 2.6 2.6 0.00 0.00 0.00 49 1023.1
20260502183308 70 310 3.5 3.5 0.00 0.00 0.00 53 1023.3
20260502182803 70 27 4.3 6.1 0.00 0.00 0.00 53 1023.4
20260502182259 69 42 6.1 7.8 0.00 0.00 0.00 54 1023.6
20260502181755 69 347 7.0 8.7 0.00 0.00 0.00 53 1023.6
20260502181255 69 309 2.6 3.5 0.00 0.00 0.00 53 1023.6
20260502180752 70 345 7.0 7.8 0.00 0.00 0.00 54 1023.9
20260502180249 69 19 3.5 3.5 0.00 0.00 0.00 53 1023.9
20260502170214 67 12 0.9 1.7 0.00 0.00 0.00 60 1024.3
20260502164201 66 313 7.0 7.8 0.00 0.00 0.00 59 1024.6
20260502163655 66 343 4.3 7.0 0.00 0.00 0.00 60 1024.7
20260502163153 65 314 3.5 5.2 0.00 0.00 0.00 59 1024.8
20260502162650 65 11 4.3 6.1 0.00 0.00 0.00 58 1024.7
20260502162147 66 4 5.2 7.8 0.00 0.00 0.00 57 1024.7
20260502161644 66 2 2.6 3.5 0.00 0.00 0.00 59 1024.6
20260502161140 65 357 4.3 6.1 0.00 0.00 0.00 58 1024.6
20260502160638 66 352 1.7 5.2 0.00 0.00 0.00 59 1024.6
20260502160137 65 5 2.6 3.5 0.00 0.00 0.00 58 1024.6
20260502152051 63 30 1.7 1.7 0.00 0.00 0.00 64 1024.8
20260502151548 62 346 3.5 5.2 0.00 0.00 0.00 63 1024.6
20260502151046 62 346 5.2 6.1 0.00 0.00 0.00 63 1024.5
20260502150543 62 337 3.5 5.2 0.00 0.00 0.00 66 1024.5
20260502130422 53 318 3.5 5.2 0.00 0.00 0.00 89 1023.5
20260502123404 50 331 1.7 1.7 0.00 0.00 0.00 94 1022.9
20260502122901 50 298 3.5 3.5 0.00 0.00 0.00 94 1022.8
20260502122357 50 319 1.7 1.7 0.00 0.00 0.00 95 1022.8
20260502121856 50 292 0.9 1.7 0.00 0.00 0.00 95 1022.8
20260502121353 50 292 2.6 2.6 0.00 0.00 0.00 95 1022.5
20260502120851 50 281 2.6 2.6 0.00 0.00 0.00 95 1022.4
20260502120346 49 298 1.7 2.6 0.00 0.00 0.00 96 1022.3
20260502115844 49 278 1.7 1.7 0.00 0.00 0.00 96 1022.2
20260502115341 50 288 1.7 1.7 0.00 0.00 0.00 96 1022.2
20260502114837 50 311 1.7 2.6 0.00 0.00 0.00 95 1022.0
20260502114334 50 288 1.7 2.6 0.00 0.00 0.00 95 1022.3
20260502113831 50 290 1.7 1.7 0.00 0.00 0.00 95 1022.0
20260502113328 50 285 1.7 1.7 0.00 0.00 0.00 95 1022.1
20260502112827 50 285 0.9 0.9 0.00 0.00 0.00 95 1022.1
20260502112324 50 291 0.0 0.0 0.00 0.00 0.00 93 1021.8
20260502111821 50 272 0.0 0.0 0.00 0.00 0.00 93 1022.0
20260502111319 50 280 0.0 0.0 0.00 0.00 0.00 93 1021.9
20260502110816 50 262 0.9 0.9 0.00 0.00 0.00 93 1021.9
20260502110314 50 283 1.7 1.7 0.00 0.00 0.00 93 1021.7
20260502105811 50 233 0.0 0.0 0.00 0.00 0.00 93 1021.5
20260502105308 50 224 1.7 1.7 0.00 0.00 0.00 94 1021.4
20260502104806 50 243 0.0 0.0 0.00 0.00 0.00 94 1021.5
20260502104302 51 232 1.7 1.7 0.00 0.00 0.00 93 1021.3
20260502103800 51 280 0.9 0.9 0.00 0.00 0.00 93 1021.2
20260502103257 51 298 0.9 1.7 0.00 0.00 0.00 92 1021.0
20260502102755 51 318 1.7 1.7 0.00 0.00 0.00 92 1021.0
20260502102250 51 338 1.7 2.6 0.00 0.00 0.00 92 1020.6
20260502101749 51 331 1.7 2.6 0.00 0.00 0.00 92 1020.7
20260502101247 51 343 3.5 6.1 0.00 0.00 0.00 92 1020.7
20260502100744 51 329 1.7 2.6 0.00 0.00 0.00 91 1020.6
20260502100243 51 335 1.7 1.7 0.00 0.00 0.00 90 1020.7
20260502091217 52 8 1.7 1.7 0.00 0.00 0.00 92 1020.1
20260502090714 52 356 2.6 3.5 0.00 0.00 0.00 92 1020.1
20260502090211 52 347 5.2 7.0 0.00 0.00 0.00 92 1020.2
20260502071107 52 339 1.7 3.5 0.00 0.00 0.00 94 1020.0
20260502070605 52 318 0.9 0.9 0.00 0.00 0.00 94 1020.2
20260502065601 52 332 3.5 3.5 0.00 0.00 0.00 94 1020.0
20260502065058 52 341 0.0 0.9 0.00 0.00 0.00 94 1020.0
20260502064556 52 336 1.7 2.6 0.00 0.00 0.00 94 1020.1
20260502064053 52 334 1.7 1.7 0.00 0.00 0.00 94 1020.1
20260502063551 52 317 0.9 1.7 0.00 0.00 0.00 94 1020.0
20260502063049 52 359 1.7 2.6 0.00 0.00 0.00 94 1020.0
20260502062545 53 349 0.9 0.9 0.00 0.00 0.00 94 1019.9
20260502062044 53 347 1.7 1.7 0.00 0.00 0.00 93 1020.1
20260502061541 53 324 3.5 6.1 0.00 0.00 0.00 93 1020.2
20260502061038 53 356 0.9 1.7 0.00 0.00 0.00 93 1020.1
20260502060534 53 345 2.6 3.5 0.00 0.00 0.00 93 1020.2
20260502060031 53 316 0.9 1.7 0.00 0.00 0.00 93 1020.2
20260502055528 53 345 3.5 5.2 0.00 0.00 0.00 93 1020.2
20260502055027 53 341 2.6 3.5 0.00 0.00 0.00 93 1020.1
20260502054525 53 318 1.7 1.7 0.00 0.00 0.00 94 1020.2
20260502054022 53 347 3.5 5.2 0.00 0.00 0.00 95 1020.2
20260502053519 53 316 1.7 2.6 0.00 0.00 0.00 94 1020.1
20260502053017 53 338 0.0 0.9 0.00 0.00 0.00 93 1020.0
20260502052515 53 326 1.7 2.6 0.00 0.00 0.00 93 1020.2
20260502052013 53 319 0.9 1.7 0.00 0.00 0.00 93 1020.0
20260502051511 53 340 1.7 1.7 0.00 0.00 0.00 92 1019.9
20260502051008 54 356 1.7 2.6 0.00 0.00 0.00 92 1019.8
20260502050504 54 15 1.7 2.6 0.00 0.00 0.00 92 1020.0
20260502050001 54 340 1.7 3.5 0.00 1.12 1.12 92 1020.1
20260502045458 54 341 3.5 5.2 0.00 1.12 1.12 91 1020.0
20260502044955 54 331 4.3 6.1 0.00 1.12 1.12 91 1019.9
20260502044450 54 6 1.7 3.5 0.00 1.12 1.12 91 1019.8
20260502043948 54 338 3.5 3.5 0.00 1.12 1.12 91 1019.9
20260502043445 54 4 4.3 6.1 0.00 1.12 1.12 91 1019.7
20260502042944 54 16 1.7 2.6 0.00 1.12 1.12 90 1019.8
20260502042442 55 9 2.6 2.6 0.00 1.12 1.12 90 1019.9
20260502041939 55 0 0.9 0.9 0.00 1.12 1.12 90 1019.9
20260502041437 55 346 4.3 7.8 0.00 1.12 1.12 90 1019.9
20260502040934 55 345 1.7 3.5 0.00 1.12 1.12 89 1019.8
20260502040430 55 351 2.6 3.5 0.00 1.12 1.12 90 1019.9
20260502035927 55 355 4.3 7.0 0.00 1.12 1.12 90 1019.9
20260502035423 55 339 1.7 3.5 0.00 1.12 1.12 89 1020.1
20260502034921 55 16 1.7 2.6 0.00 1.12 1.12 90 1020.2
20260502034420 55 329 5.2 7.0 0.00 1.12 1.12 90 1019.7
20260502033917 55 339 5.2 7.0 0.00 1.12 1.12 90 1019.8
20260502033415 55 355 0.9 1.7 0.00 1.12 1.12 90 1019.9
20260502032911 55 308 2.6 5.2 0.00 1.12 1.12 90 1019.6
20260502032408 55 337 6.1 9.6 0.00 1.12 1.12 90 1019.7
20260502031905 55 340 4.3 7.0 0.00 1.12 1.12 90 1019.7
20260502031403 55 342 1.7 2.6 0.00 1.12 1.12 90 1019.7
20260502030901 55 355 5.2 7.0 0.00 1.12 1.12 90 1019.7
20260502030359 55 324 4.3 5.2 0.00 1.12 1.12 90 1019.5
20260502025856 55 343 2.6 5.2 0.00 1.12 1.12 90 1019.4
20260502025353 55 341 3.5 3.5 0.00 1.12 1.12 90 1019.4
20260502024851 55 24 5.2 6.1 0.00 1.12 1.12 90 1019.4
20260502024349 55 305 2.6 3.5 0.00 1.12 1.12 90 1019.4
20260502023847 55 14 6.1 9.6 0.00 1.12 1.12 89 1019.2
20260502023344 55 25 7.8 9.6 0.00 1.12 1.12 89 1019.1
20260502022842 54 42 5.2 7.8 0.00 1.12 1.12 90 1019.1
20260502022338 54 26 3.5 5.2 0.00 1.12 1.12 91 1018.9
20260502021835 54 345 2.6 6.1 0.00 1.12 1.12 92 1018.7
20260502021332 54 14 3.5 5.2 0.00 1.12 1.12 93 1018.6
20260502020830 54 16 2.6 5.2 0.00 1.12 1.12 93 1018.5